Live-Position
3D-Globus wird geladen...
Über Starlink 3680
Group: 3 satellites
Beschreibung wird geladen...
Nächste Überflüge
Passes for default location (London). Set your location on the main map for personalized predictions.
Höhenverlauf
Loading altitude history...
No altitude history available
Zweizeiliger Elementsatz
1 51969U 22025P 26125.27604444 .00000611 00000-0 31446-4 0 9998
2 51969 53.1611 121.2321 0001292 88.3122 271.8027 15.31703064229672
Epoch: 5. Mai 2026 •
Age: 16 hours
Aktueller Status
Höhe 472.2 km
Geschwindigkeit 7.63 km/s
Subsatellitenpunkt 32.18°N,
54.67°W
Startdatum 9. März 2022
Alter 4.1 years
Typ internet
Startgruppe
Falcon 9 •
Group 4-10 •
40 satellites
Starlink 3700
51956
Starlink 3694 51957
Starlink 3692 51958
Starlink 3704 51959
Starlink 3691 51960
Starlink 3697 51962
Starlink 3675 51963
Starlink 3690 51964
Starlink 3696 51965
Starlink 3699 51966
Starlink 3681 51968
Starlink 3677 51970
Starlink 3669 51971
Starlink 3671 51972
Starlink 3679 51973
Starlink 3672 51974
Starlink 3674 51975
Starlink 3660 51977
Starlink 3649 51980
Starlink 3635 51981
...and 19 more
Technische Details
Klassifizierung Payload
Masse 297.00 kg
Trockenmasse 275.00 kg
Gesamtmasse 297.00 kg
Länge 0.20 m
Durchmesser 2.80 m
Spannweite 9.00 m
Form Box + pan
Hersteller SPXS
Bus-Typ Starlink
Phasenstatus In Orbit
Besitzer/Staat SPXS/US
Most Searched
Loading...